shijiazhuang , China , ASIA

  • Thursday
    July 18

      Cloudy

      75 °F

      No wind

       

  • Friday
    July 19

    Thundershower  Thundershower

    90 °F  77 °F

    South  No wind

    3~4L    

  • Saturday
    July 20

    Thundershower  Cloudy

    86 °F  75 °F

    South  North

        

  • Sunday
    July 21

    Cloudy  Cloudy

    97 °F  79 °F

    South  North

    3~4L    

  • Monday
    July 22

    Moderate rain  Light rain

    84 °F  75 °F

    North  North

    3~4L    

  • Tuesday
    July 23

    Cloudy  Cloudy

    86 °F  77 °F

    North  North

        

  • Wednesday
    July 24

    Cloudy  Cloudy

    97 °F  79 °F

    South  North

    3~4L    

Date   Weather Temperature Humidity Total_rain Visibility Wind
23:00 Cloudy 78°F 92.4% 0mm 999.9km Southeast  1.1m/s
02:00 Cloudy 78°F 93.1% 0mm 999.9km Southeast  0.9m/s
05:00 Cloudy 76°F 93.5% 0mm 999.9km Southeast  0.4m/s
08:00 Cloudy 82°F 90.4% 0mm 999.9km Southeast  1.1m/s
11:00 Thundershower 88°F 79.3% 0.1mm 999.9km Southeast  2.4m/s
14:00 Thundershower 89°F 79.2% 0.6mm 999.9km Southeast  3.7m/s
17:00 Cloudy 89°F 79.1% 0mm 999.9km Southeast  3.7m/s
20:00 Cloudy 81°F 73.1% 0mm 999.9km Southeast  2.4m/s
23:00 Overcast 79°F 92.8% 0mm 999.9km Southeast  1.9m/s
02:00 Overcast 78°F 94.4% 0mm 999.9km Southeast  1.6m/s
05:00 Cloudy 77°F 94.6% 0mm 999.9km Southeast  1.3m/s
08:00 Thundershower 81°F 91.2% 0.9mm 999.9km Southeast  0.7m/s
11:00 Thundershower 82°F 89.9% 6.3mm 999.9km Southeast  0.8m/s
14:00 Thundershower 84°F 88.6% 2.5mm 999.9km Southeast  0.7m/s
17:00 Sunny 86°F 88.4% 0mm 999.9km Southeast  1.4m/s
20:00 Thundershower 80°F 83.4% 3.1mm 999.9km Southeast  0.7m/s
23:00 Cloudy 77°F 97.5% 0mm 999.9km Northeast  1.1m/s
02:00 Cloudy 76°F 96.9% 0mm 999.9km Northwest  1.1m/s
05:00 Cloudy 76°F 96.3% 0mm 999.9km Northwest  0.8m/s
08:00 Cloudy 84°F 91.5% 0mm 999.9km Northwest  1.0m/s
11:00 Cloudy 92°F 73.2% 0mm 999.9km Northeast  2.3m/s
14:00 Cloudy 96°F 67.3% 0mm 999.9km Southeast  3.3m/s
17:00 Cloudy 96°F 68.3% 0mm 999.9km Southeast  2.6m/s
20:00 Cloudy 86°F 60.9% 0mm 999.9km Southeast  1.1m/s
23:00 Cloudy 84°F 93.9% 0mm 999.9km Southeast  1.1m/s
02:00 Cloudy 83°F 96.3% 0mm 999.9km Southwest  1.3m/s
05:00 Cloudy 82°F 98.2% 0mm 999.9km Southwest  1.5m/s
08:00 Cloudy 82°F 98.5% 0mm 999.9km Southeast  0.8m/s
11:00 Moderate rain 82°F 98.8% 5.4mm 999.9km Northeast  1.8m/s
14:00 Moderate rain 81°F 97.9% 5.4mm 999.9km Northeast  0.7m/s
17:00 Light rain 80°F 98.1% 2.2mm 999.9km Northwest  1.9m/s
20:00 Light rain 79°F 91.9% 2.8mm 999.9km Northwest  2.7m/s
23:00 Light rain 77°F 98.4% 0.9mm 999.9km Northeast  3.1m/s
02:00 Light rain 76°F 97.7% 0.2mm 999.9km Northeast  2.3m/s
05:00 Cloudy 76°F 96.9% 0mm 999.9km Northwest  1.7m/s
08:00 Sunny 79°F 96.2% 0mm 999.9km Northwest  1.3m/s
11:00 Cloudy 86°F 80.4% 0mm 999.9km Southeast  2.9m/s
14:00 Cloudy 83°F 79.3% 0mm 999.9km Southeast  2.2m/s
17:00 Cloudy 82°F 78.2% 0mm 999.9km Southeast  5.1m/s
20:00 Cloudy 80°F 76.4% 0mm 999.9km Southeast  1.5m/s
23:00 Cloudy 81°F 95% 0mm 999.9km Northwest  1.3m/s
02:00 Cloudy 80°F 97.3% 0mm 999.9km Southeast  0.6m/s
05:00 Cloudy 77°F 95.6% 0mm 999.9km Northwest  0.6m/s
08:00 Cloudy 87°F 92% 0mm 999.9km Southeast  1.8m/s
11:00 Cloudy 96°F 88.3% 0mm 999.9km Northeast  3.1m/s
14:00 Cloudy 89°F 87.2% 0mm 999.9km Southeast  2.7m/s
17:00 Cloudy 87°F 86% 0mm 999.9km Southeast  4.1m/s
20:00 Cloudy 87°F 84.3% 0mm 999.9km Southeast  1.4m/s
23:00 Cloudy 82°F 89.3% 0mm 999.9km Southwest  1.5m/s
02:00 Cloudy 80°F 97% 0mm 999.9km Northwest  0.2m/s
05:00 Cloudy 79°F 96.6% 0mm 999.9km Southwest  2.3m/s